Weather Roundup
Issued by NWS

Home | Current Version | Previous Version | Graphics & Text | Print | Product List | Glossary Off
Versions: 1 2 3 4 5 6 7 8 9 10 11 12 13 14 15 16 17 18 19 20 21 22 23 24 25 26 27 28 29 30 31 32 33 34 35 36 37 38 39 40 41 42 43 44 45 46 47 48 49 50

000
NZUS93 KARX 102259
HRRWXR

CURRENT HOURLY OBSERVATIONS ACROSS
MUCH OF THE UPPER MISSISSIPPI VALLEY
NATIONAL WEATHER SERVICE LA CROSSE WI
600 PM CDT THU JUL 10 2014


...SOUTHEAST MINNESOTA...


CITY           SKY/WX    TMP DP  RH WIND       PRES   REMARKS
ROCHESTER      MOSUNNY   78  60  53 S13       30.06S
ROCHESTER/MAYO FAIR      80  55  41 S7G20     30.05S
WINONA         MOSUNNY   81  61  50 S7        30.03S
AUSTIN         PTSUNNY   79  55  44 S12G17    30.04S
ALBERT LEA     PTSUNNY   81  55  41 S9        30.03S
DODGE CENTER   PTSUNNY   81  61  50 S14       30.04F
PRESTON        MOSUNNY   78  61  54 S13       30.07S
OWATONNA       PTSUNNY   81  55  41 S10       30.02S
FARIBAULT      PTSUNNY   84  52  32 S14       30.01F
$$

...ELSEWHERE IN MINNESOTA...


CITY           SKY/WX    TMP DP  RH WIND       PRES   REMARKS
MINNEAPOLIS    CLOUDY    84  58  40 SW14      29.98F
INTNL FALLS    SUNNY     77  54  44 S8        29.93S
DULUTH         MOSUNNY   75  57  53 SE7       30.00S
RED WING       PTSUNNY   84  61  45 S7        30.00S
REDWOOD FALLS  CLOUDY    84  63  49 S16       29.93F
MANKATO        PTSUNNY   81  57  44 S13G20    30.00R
WORTHINGTON    CLOUDY    77  64  65 S15       29.97F
FAIRMONT       CLOUDY    81  59  47 S13       30.00S
$$

...SOUTHWEST WISCONSIN...


CITY           SKY/WX    TMP DP  RH WIND       PRES   REMARKS
LA CROSSE      SUNNY     82  62  50 S13       30.04S HAZE
PRAIRIE DU CHI SUNNY     81  59  47 SE6       30.06F
BOSCOBEL       SUNNY     82  60  47 VRB6      30.07F
LONE ROCK      NOT AVBL
PLATTEVILLE    SUNNY     79  60  52 S9        30.11F
FORT MC COY    SUNNY     80  60  51 S9        30.07S
VIROQUA        FAIR      79  61  54 S9G16     30.09S
WIS DELLS      PTSUNNY   80  58  48 SW7       30.09S
$$

...ELSEWHERE IN WISCONSIN...


CITY           SKY/WX    TMP DP  RH WIND       PRES   REMARKS
MILWAUKEE      MOSUNNY   68  53  58 SE12      30.15F
MADISON        MOSUNNY   80  58  46 S9        30.10F
GREEN BAY      SUNNY     74  56  53 SE15      30.11F
EAU CLAIRE     NOT AVBL
BLACK RVR FLS  FAIR      81  61  51 S8        30.04F
MEDFORD        MOSUNNY   76  61  59 SE9       30.07F
WAUSAU         MOSUNNY   78  57  48 S9        30.06F
WIS RAPIDS     PTSUNNY   80  61  52 S10       30.08F
MARSHFIELD     SUNNY     77  63  61 S13       30.06F
RICE LAKE      MOSUNNY   79  59  51 S6        30.03F
$$

...NORTHEAST IOWA...


CITY           SKY/WX    TMP DP  RH WIND       PRES   REMARKS
WATERLOO       MOSUNNY   80  57  45 S12       30.06S
DUBUQUE        SUNNY     78  60  53 S10       30.10F
DECORAH          N/A    N/A N/A N/A MISG        N/A
MASON CITY     PTSUNNY   79  57  46 S14       30.05F
CHARLES CITY   PTSUNNY   79  59  50 S14       30.07R
OELWEIN        MOSUNNY   79  63  57 S12       30.09S
$$

...ELSEWHERE IN IOWA...


CITY           SKY/WX    TMP DP  RH WIND       PRES   REMARKS
DES MOINES     MOSUNNY   83  57  41 S15G23    30.04F
IOWA CITY      SUNNY     81  59  47 S12       30.09F
FORT DODGE     PTSUNNY   79  61  53 S12G17    30.04R
MARSHALLTOWN   MOSUNNY   79  59  50 S16       30.06R
CEDAR RAPIDS   SUNNY     78  58  49 S8        30.07F
$$

...NORTHERN ILLINOIS...


CITY           SKY/WX    TMP DP  RH WIND       PRES   REMARKS
CHICAGO-OHARE  MOSUNNY   75  52  44 E10       30.14S
DUPAGE         MOSUNNY   75  56  51 E8        30.13S
CHICAGO-MIDWAY MOSUNNY   75  51  43 E8        30.15R
MOLINE         SUNNY     80  59  48 S6        30.09F
ROCKFORD       MOSUNNY   78  57  48 S8        30.13F
STERLING       PTSUNNY   81  61  50 S7        30.12S
PEORIA         CLOUDY    78  58  49 SE5       30.12F
$$

NOTE: "FAIR" INDICATES FEW OR NO CLOUDS BELOW 12,000 FEET WITH NO
SIGNIFICANT WEATHER AND/OR OBSTRUCTIONS TO VISIBILITY. WIND
SPEEDS ARE IN MILES-PER-HOUR.



USA.gov is the U.S. government's official web portal to all federal, state and local government web resources and services.